GALAXY 34 (G-34)

Last updated on Sun Jun 21 2026 00:03:09 GMT+0000 (Coordinated Universal Time)

1 54027U 22128B 26171.03517034 .00000053 00000+0 00000+0 0 9999 2 54027 0.0124 53.5288 0001758 53.8534 44.5334 1.00275411 13948
UTC large
Height (km)
Speed (km/s)
/
Latitude / Longitude
Inclination (degrees)
Orbital Period (minutes)
Azimuth
Elevation
Range (km)
Doppler Factor

Next 0 passes for location: London (51.5072 / 0.1276)

No passes found over London.
GALAXY 34 (G-34)